SWR9LC LSZH-EDDB

Flight info

Callsign SWR9LC
Flight time N/A
Altitude 34000
Route DEGES Z1 ETAGO DCT TIKNI/N0447F350 T279 TAMEB T278 KLF KLF1L
Aircraft A321/M-SDE3FGHIRWY/LB1

Departure

Time N/A
Airport Zürich Airport (LSZH)

Arrival

Time 2026-05-01 07:37
Airport Berlin Brandenburg Airport (EDDB)
Time Latitude Longitude Altitude Speed Heading
2026-05-01 07:23 52.27348 13.83023 10262 ft 269 kts 352°
2026-05-01 07:23 52.30807 13.81390 9914 ft 249 kts 359°
2026-05-01 07:24 52.32474 13.81791 9818 ft 243 kts 23°
2026-05-01 07:24 52.33879 13.83286 9693 ft 242 kts 47°
2026-05-01 07:24 52.34772 13.85602 9559 ft 244 kts 68°
2026-05-01 07:24 52.35373 13.88203 9418 ft 244 kts 68°
2026-05-01 07:25 52.35974 13.90801 9281 ft 244 kts 68°
2026-05-01 07:25 52.36570 13.93359 9151 ft 245 kts 68°
2026-05-01 07:25 52.37175 13.95957 8881 ft 242 kts 68°
2026-05-01 07:25 52.37775 13.98524 8592 ft 241 kts 68°
2026-05-01 07:26 52.38369 14.01078 8290 ft 240 kts 68°
2026-05-01 07:26 52.38957 14.03615 7992 ft 239 kts 68°
2026-05-01 07:26 52.39543 14.06151 7684 ft 238 kts 68°
2026-05-01 07:26 52.40127 14.08677 7387 ft 236 kts 68°
2026-05-01 07:27 52.40707 14.11187 7085 ft 235 kts 68°
2026-05-01 07:27 52.41277 14.13656 6788 ft 234 kts 68°
2026-05-01 07:27 52.41983 14.16030 6495 ft 231 kts 50°
2026-05-01 07:27 52.43203 14.17679 6191 ft 228 kts 24°
2026-05-01 07:28 52.44736 14.18237 5895 ft 228 kts 358°
2026-05-01 07:28 52.46256 14.17594 5601 ft 228 kts 332°
2026-05-01 07:28 52.47434 14.15864 5309 ft 231 kts 305°
2026-05-01 07:28 52.48008 14.13399 4936 ft 236 kts 276°
2026-05-01 07:29 52.47857 14.10730 4612 ft 237 kts 259°
2026-05-01 07:29 52.47526 14.08144 4325 ft 232 kts 259°
2026-05-01 07:29 52.47194 14.05563 3995 ft 230 kts 259°
2026-05-01 07:29 52.46869 14.03019 3813 ft 222 kts 259°
2026-05-01 07:30 52.46564 14.00625 3659 ft 212 kts 259°
2026-05-01 07:30 52.46313 13.98265 3516 ft 209 kts 263°
2026-05-01 07:30 52.45993 13.95947 3373 ft 208 kts 254°
2026-05-01 07:30 52.45527 13.93704 3214 ft 208 kts 251°
2026-05-01 07:31 52.45020 13.91485 3102 ft 208 kts 250°
2026-05-01 07:31 52.43485 13.84889 3005 ft 206 kts 250°
2026-05-01 07:32 52.42468 13.80526 3015 ft 206 kts 250°
2026-05-01 07:32 52.41955 13.78331 3022 ft 206 kts 250°
2026-05-01 07:33 52.40946 13.74017 2901 ft 194 kts 250°
2026-05-01 07:33 52.40481 13.72035 2666 ft 179 kts 250°
2026-05-01 07:33 52.39660 13.68531 2239 ft 152 kts 250°
2026-05-01 07:34 52.39287 13.66941 2041 ft 148 kts 250°
2026-05-01 07:34 52.38559 13.63843 1670 ft 145 kts 250°
2026-05-01 07:34 52.38198 13.62309 1458 ft 144 kts 249°
2026-05-01 07:35 52.37837 13.60780 1275 ft 144 kts 249°
2026-05-01 07:35 52.37478 13.59254 1085 ft 143 kts 249°
2026-05-01 07:35 52.37120 13.57735 892 ft 143 kts 249°
2026-05-01 07:35 52.36767 13.56241 698 ft 142 kts 249°
2026-05-01 07:36 52.36410 13.54731 518 ft 142 kts 249°
2026-05-01 07:36 52.36054 13.53228 327 ft 142 kts 249°
2026-05-01 07:36 52.35700 13.51730 177 ft 140 kts 249°
2026-05-01 07:36 52.35384 13.50390 154 ft 106 kts 249°
2026-05-01 07:37 52.35096 13.49173 154 ft 25 kts 252°
2026-05-01 07:37 52.35077 13.48901 154 ft 24 kts 272°
2026-05-01 07:37 52.35094 13.48653 154 ft 19 kts 274°
2026-05-01 07:38 52.35119 13.48545 154 ft 9 kts 315°
2026-05-01 07:38 52.35174 13.48506 154 ft 8 kts 341°
2026-05-01 07:38 52.35266 13.48509 154 ft 6 kts 52°
2026-05-01 07:39 52.35286 13.48570 154 ft 6 kts 66°
2026-05-01 07:39 52.35299 13.48626 154 ft 5 kts 69°
2026-05-01 07:39 52.35332 13.48764 154 ft 9 kts 69°
2026-05-01 07:40 52.35366 13.48909 154 ft 15 kts 69°
2026-05-01 07:40 52.35407 13.49083 154 ft 20 kts 69°
2026-05-01 07:40 52.35468 13.49340 154 ft 26 kts 69°
2026-05-01 07:40 52.35533 13.49611 154 ft 25 kts 68°
2026-05-01 07:41 52.35597 13.49879 154 ft 25 kts 69°
2026-05-01 07:41 52.35660 13.50147 154 ft 25 kts 69°
2026-05-01 07:41 52.35769 13.50610 154 ft 14 kts 69°
2026-05-01 07:42 52.35799 13.50729 155 ft 10 kts 63°
2026-05-01 07:42 52.35852 13.50770 155 ft 9 kts 352°
2026-05-01 07:42 52.35909 13.50737 155 ft 9 kts 339°
2026-05-01 07:42 52.35980 13.50693 155 ft 16 kts 339°
2026-05-01 07:43 52.36092 13.50623 155 ft 17 kts 339°
2026-05-01 07:43 52.36190 13.50559 155 ft 7 kts 339°
2026-05-01 07:43 52.36238 13.50643 155 ft 5 kts 69°
2026-05-01 07:44 52.36245 13.50672 155 ft 1 kts 68°
2026-05-01 07:44 52.36246 13.50676 155 ft 0 kts 68°